User: anonymous   Login
Location: Saint-Denis
(20.8800°S, 55.4481°E)
Time: 18:21:20
(UTC+04:00)
Language:

THORAD AGENA D DEB - Orbit

View from above orbital plane
View from above orbital plane
View from above satellite
View from above satellite

Ground track
Ground track

The orbit data is extracted from the following two-line orbital elements,

1 42537U 70025ST  24052.32973211  .00001327  00000-0  13072-2 0  9994
2 42537 100.0845 246.6924 0007173 269.9495  90.0833 13.80846060935855
Epoch (UTC): 21 February 2024 07:54:48
Eccentricity: 0.0007173
inclination: 100.0845°
perigee height: 955 km
apogee height: 966 km
right ascension of ascending node: 246.6924°
argument of perigee: 269.9495°
revolutions per day: 13.80846060
mean anomaly at epoch: 90.0833°
orbit number at epoch: 93585

The dashed part of the orbit path shows where the satellite is in the earth's shadow,  

DLR